| time (UTC) | temp C | wind direction | speed KPH | gust KPH | rain 1hr cm | rain 24hr cm | rain mn cm | humidity % | barometer mb |
| 20260506005703 | 10 | 238 | 6.4 | 8.0 | 0.00 | 0.03 | 0.03 | 52 | 1007.3 |
| 20260506005200 | 11 | 291 | 1.6 | 3.2 | 0.00 | 0.03 | 0.03 | 51 | 1007.3 |
| 20260506004655 | 10 | 272 | 4.8 | 4.8 | 0.00 | 0.03 | 0.03 | 51 | 1007.2 |
| 20260506004153 | 11 | 272 | 0.0 | 1.6 | 0.00 | 0.03 | 0.03 | 52 | 1007.3 |
| 20260506003649 | 11 | 125 | 1.6 | 1.6 | 0.00 | 0.03 | 0.03 | 51 | 1007.5 |
| 20260506003146 | 11 | 231 | 4.8 | 8.0 | 0.00 | 0.03 | 0.03 | 50 | 1007.3 |
| 20260506002641 | 11 | 212 | 4.8 | 4.8 | 0.00 | 0.03 | 0.03 | 50 | 1007.4 |
| 20260506002138 | 11 | 287 | 4.8 | 8.0 | 0.00 | 0.03 | 0.03 | 50 | 1007.5 |
| 20260506001633 | 11 | 198 | 3.2 | 3.2 | 0.00 | 0.03 | 0.03 | 49 | 1007.4 |
| 20260506001131 | 11 | 247 | 6.4 | 8.0 | 0.00 | 0.03 | 0.03 | 48 | 1007.3 |
| 20260506000628 | 11 | 258 | 1.6 | 1.6 | 0.00 | 0.03 | 0.03 | 49 | 1007.3 |
| 20260506000125 | 11 | 268 | 6.4 | 8.0 | 0.00 | 0.03 | 0.03 | 48 | 1007.1 |
| 20260505235624 | 11 | 292 | 8.0 | 12.9 | 0.00 | 0.03 | 0.03 | 47 | 1007.0 |
| 20260505235120 | 11 | 244 | 8.0 | 11.3 | 0.00 | 0.03 | 0.03 | 47 | 1006.9 |
| 20260505234617 | 11 | 229 | 9.7 | 11.3 | 0.00 | 0.03 | 0.03 | 47 | 1006.8 |
| 20260505234114 | 11 | 307 | 3.2 | 3.2 | 0.00 | 0.03 | 0.03 | 49 | 1006.8 |
| 20260505233611 | 11 | 323 | 3.2 | 4.8 | 0.00 | 0.03 | 0.03 | 48 | 1006.8 |
| 20260505233109 | 11 | 248 | 3.2 | 3.2 | 0.00 | 0.03 | 0.03 | 47 | 1006.6 |
| 20260505232606 | 12 | 335 | 11.3 | 12.9 | 0.00 | 0.03 | 0.03 | 46 | 1006.5 |
| 20260505232104 | 12 | 205 | 9.7 | 12.9 | 0.00 | 0.03 | 0.03 | 46 | 1006.8 |
| 20260505231600 | 12 | 227 | 4.8 | 8.0 | 0.00 | 0.03 | 0.03 | 45 | 1006.7 |
| 20260505231059 | 12 | 233 | 8.0 | 9.7 | 0.00 | 0.03 | 0.03 | 45 | 1006.7 |
| 20260505230556 | 12 | 269 | 11.3 | 14.5 | 0.00 | 0.03 | 0.03 | 44 | 1006.6 |
| 20260505230052 | 12 | 261 | 8.0 | 9.7 | 0.00 | 0.03 | 0.03 | 43 | 1006.4 |
| 20260505225549 | 12 | 271 | 4.8 | 4.8 | 0.00 | 0.03 | 0.03 | 43 | 1006.6 |
| 20260505225045 | 12 | 291 | 1.6 | 1.6 | 0.00 | 0.03 | 0.03 | 43 | 1006.7 |
| 20260505224543 | 12 | 289 | 4.8 | 4.8 | 0.00 | 0.03 | 0.03 | 43 | 1006.6 |
| 20260505224040 | 12 | 277 | 4.8 | 8.0 | 0.00 | 0.03 | 0.03 | 42 | 1006.7 |
| 20260505223537 | 12 | 209 | 4.8 | 4.8 | 0.00 | 0.03 | 0.03 | 42 | 1006.8 |
| 20260505223033 | 12 | 276 | 14.5 | 20.9 | 0.00 | 0.03 | 0.03 | 41 | 1007.0 |
| 20260505222529 | 13 | 324 | 16.1 | 20.9 | 0.00 | 0.03 | 0.03 | 41 | 1006.7 |
| 20260505222026 | 13 | 238 | 1.6 | 3.2 | 0.00 | 0.03 | 0.03 | 43 | 1006.7 |
| 20260505221523 | 13 | 311 | 4.8 | 8.0 | 0.00 | 0.03 | 0.03 | 42 | 1006.6 |
| 20260505221019 | 13 | 249 | 8.0 | 11.3 | 0.00 | 0.03 | 0.03 | 43 | 1006.5 |
| 20260505220517 | 13 | 265 | 4.8 | 4.8 | 0.00 | 0.03 | 0.03 | 42 | 1006.7 |
| 20260505220015 | 13 | 256 | 11.3 | 14.5 | 0.00 | 0.03 | 0.03 | 41 | 1006.8 |
| 20260505215512 | 13 | 243 | 17.7 | 20.9 | 0.00 | 0.03 | 0.03 | 42 | 1006.7 |
| 20260505215010 | 13 | 249 | 4.8 | 8.0 | 0.00 | 0.03 | 0.03 | 42 | 1006.5 |
| 20260505214508 | 13 | 206 | 3.2 | 3.2 | 0.00 | 0.03 | 0.03 | 43 | 1006.7 |
| 20260505214004 | 13 | 319 | 8.0 | 11.3 | 0.00 | 0.03 | 0.03 | 42 | 1006.7 |
| 20260505213502 | 13 | 236 | 3.2 | 4.8 | 0.00 | 0.03 | 0.03 | 44 | 1006.7 |
| 20260505212958 | 13 | 226 | 9.7 | 14.5 | 0.00 | 0.03 | 0.03 | 42 | 1006.4 |
| 20260505212455 | 13 | 285 | 3.2 | 4.8 | 0.00 | 0.03 | 0.03 | 43 | 1006.6 |
| 20260505211952 | 13 | 290 | 3.2 | 4.8 | 0.00 | 0.03 | 0.03 | 44 | 1006.6 |
| 20260505211449 | 13 | 246 | 4.8 | 9.7 | 0.00 | 0.03 | 0.03 | 43 | 1006.8 |
| 20260505210945 | 13 | 259 | 4.8 | 8.0 | 0.00 | 0.03 | 0.03 | 44 | 1006.7 |
| 20260505210443 | 13 | 282 | 3.2 | 3.2 | 0.00 | 0.03 | 0.03 | 44 | 1006.7 |
| 20260505205939 | 13 | 198 | 1.6 | 3.2 | 0.00 | 0.03 | 0.03 | 46 | 1006.6 |
| 20260505205438 | 13 | 294 | 6.4 | 11.3 | 0.00 | 0.03 | 0.03 | 45 | 1006.6 |
| 20260505204934 | 13 | 236 | 4.8 | 8.0 | 0.00 | 0.03 | 0.03 | 45 | 1006.6 |
| 20260505204432 | 14 | 247 | 6.4 | 9.7 | 0.00 | 0.03 | 0.03 | 49 | 1006.5 |
| 20260505203929 | 13 | 229 | 3.2 | 3.2 | 0.00 | 0.03 | 0.03 | 50 | 1006.5 |
| 20260505203425 | 13 | 307 | 4.8 | 4.8 | 0.00 | 0.03 | 0.03 | 49 | 1006.5 |
| 20260505202922 | 14 | 199 | 3.2 | 4.8 | 0.00 | 0.03 | 0.03 | 48 | 1006.5 |
| 20260505202418 | 13 | 241 | 8.0 | 9.7 | 0.00 | 0.03 | 0.03 | 52 | 1006.8 |
| 20260505201915 | 13 | 211 | 3.2 | 3.2 | 0.00 | 0.03 | 0.03 | 55 | 1006.5 |
| 20260505201412 | 13 | 291 | 9.7 | 11.3 | 0.00 | 0.03 | 0.03 | 53 | 1006.7 |
| 20260505200910 | 13 | 208 | 8.0 | 14.5 | 0.00 | 0.03 | 0.03 | 54 | 1006.9 |
| 20260505200407 | 13 | 237 | 4.8 | 8.0 | 0.00 | 0.03 | 0.03 | 54 | 1006.8 |
| 20260505195902 | 13 | 219 | 8.0 | 9.7 | 0.00 | 0.03 | 0.03 | 51 | 1006.4 |
| 20260505195400 | 13 | 253 | 6.4 | 9.7 | 0.00 | 0.03 | 0.03 | 51 | 1006.6 |
| 20260505194857 | 13 | 233 | 4.8 | 4.8 | 0.00 | 0.03 | 0.03 | 52 | 1006.8 |
| 20260505194354 | 13 | 281 | 9.7 | 11.3 | 0.00 | 0.03 | 0.03 | 50 | 1006.8 |
| 20260505193849 | 13 | 354 | 3.2 | 3.2 | 0.00 | 0.03 | 0.03 | 51 | 1006.4 |
| 20260505193347 | 13 | 264 | 3.2 | 4.8 | 0.00 | 0.03 | 0.03 | 52 | 1006.6 |
| 20260505192844 | 13 | 240 | 3.2 | 4.8 | 0.00 | 0.03 | 0.03 | 52 | 1006.5 |
| 20260505192343 | 13 | 230 | 8.0 | 11.3 | 0.00 | 0.03 | 0.03 | 53 | 1006.6 |
| 20260505191840 | 13 | 248 | 8.0 | 9.7 | 0.00 | 0.03 | 0.03 | 54 | 1006.5 |
| 20260505191338 | 13 | 221 | 4.8 | 8.0 | 0.00 | 0.03 | 0.03 | 55 | 1006.8 |
| 20260505190835 | 14 | 266 | 9.7 | 12.9 | 0.00 | 0.03 | 0.03 | 54 | 1006.6 |
| 20260505190330 | 13 | 214 | 4.8 | 8.0 | 0.00 | 0.03 | 0.03 | 55 | 1006.4 |
| 20260505185826 | 15 | 177 | 3.2 | 3.2 | 0.00 | 0.03 | 0.03 | 58 | 1006.7 |
| 20260505185322 | 13 | 256 | 0.0 | 1.6 | 0.00 | 0.03 | 0.03 | 59 | 1006.6 |
| 20260505184819 | 13 | 224 | 3.2 | 8.0 | 0.00 | 0.03 | 0.03 | 60 | 1006.4 |
| 20260505184316 | 13 | 174 | 8.0 | 12.9 | 0.00 | 0.03 | 0.03 | 61 | 1006.7 |
| 20260505183813 | 13 | 272 | 4.8 | 9.7 | 0.00 | 0.03 | 0.03 | 60 | 1006.5 |
| 20260505183310 | 13 | 261 | 3.2 | 4.8 | 0.00 | 0.03 | 0.03 | 61 | 1006.2 |
| 20260505182807 | 13 | 307 | 4.8 | 8.0 | 0.00 | 0.03 | 0.03 | 62 | 1006.3 |
| 20260505182306 | 13 | 291 | 8.0 | 9.7 | 0.00 | 0.03 | 0.03 | 61 | 1006.3 |
| 20260505181800 | 13 | 254 | 3.2 | 3.2 | 0.00 | 0.03 | 0.03 | 70 | 1006.3 |
| 20260505181257 | 13 | 230 | 1.6 | 3.2 | 0.00 | 0.03 | 0.03 | 70 | 1006.2 |
| 20260505180754 | 13 | 223 | 1.6 | 3.2 | 0.00 | 0.03 | 0.03 | 69 | 1006.2 |
| 20260505180250 | 13 | 280 | 11.3 | 16.1 | 0.00 | 0.03 | 0.03 | 67 | 1006.3 |
| 20260505175747 | 13 | 245 | 1.6 | 3.2 | 0.00 | 0.03 | 0.03 | 69 | 1006.1 |
| 20260505175243 | 12 | 277 | 1.6 | 3.2 | 0.00 | 0.03 | 0.03 | 71 | 1006.1 |
| 20260505174740 | 12 | 315 | 8.0 | 11.3 | 0.00 | 0.03 | 0.03 | 72 | 1006.0 |
| 20260505174237 | 12 | 286 | 4.8 | 8.0 | 0.00 | 0.03 | 0.03 | 72 | 1006.1 |
| 20260505173733 | 12 | 227 | 8.0 | 9.7 | 0.00 | 0.03 | 0.03 | 72 | 1005.8 |
| 20260505173230 | 12 | 227 | 3.2 | 4.8 | 0.00 | 0.03 | 0.03 | 73 | 1006.1 |
| 20260505172727 | 12 | 213 | 4.8 | 4.8 | 0.00 | 0.03 | 0.03 | 74 | 1006.3 |
| 20260505172224 | 12 | 200 | 1.6 | 1.6 | 0.00 | 0.03 | 0.03 | 73 | 1006.3 |
| 20260505171724 | 12 | 253 | 0.0 | 0.0 | 0.00 | 0.03 | 0.03 | 74 | 1006.0 |
| 20260505171221 | 11 | 293 | 1.6 | 3.2 | 0.00 | 0.03 | 0.03 | 73 | 1006.2 |
| 20260505170718 | 12 | 256 | 3.2 | 3.2 | 0.00 | 0.03 | 0.03 | 73 | 1006.1 |
| 20260505170215 | 11 | 308 | 0.0 | 0.0 | 0.00 | 0.03 | 0.03 | 73 | 1006.0 |
| 20260505165710 | 12 | 279 | 0.0 | 0.0 | 0.00 | 0.03 | 0.03 | 73 | 1006.0 |
| 20260505165206 | 11 | 338 | 0.0 | 0.0 | 0.00 | 0.03 | 0.03 | 74 | 1006.0 |
| 20260505164702 | 12 | 1 | 0.0 | 1.6 | 0.00 | 0.03 | 0.03 | 74 | 1006.3 |
| 20260505164159 | 11 | 261 | 3.2 | 4.8 | 0.00 | 0.03 | 0.03 | 75 | 1006.4 |
| 20260505163657 | 11 | 273 | 3.2 | 4.8 | 0.00 | 0.03 | 0.03 | 77 | 1006.4 |
| 20260505163155 | 11 | 274 | 0.0 | 0.0 | 0.00 | 0.03 | 0.03 | 78 | 1006.5 |
| 20260505162653 | 11 | 268 | 3.2 | 4.8 | 0.00 | 0.03 | 0.03 | 77 | 1006.1 |
| 20260505162150 | 11 | 221 | 1.6 | 3.2 | 0.00 | 0.03 | 0.03 | 80 | 1006.4 |
| 20260505161646 | 10 | 216 | 1.6 | 1.6 | 0.00 | 0.03 | 0.03 | 81 | 1006.4 |
| 20260505161144 | 10 | 274 | 1.6 | 3.2 | 0.00 | 0.03 | 0.03 | 82 | 1006.3 |
| 20260505160642 | 10 | 273 | 4.8 | 4.8 | 0.00 | 0.03 | 0.03 | 80 | 1006.4 |
| 20260505160139 | 10 | 320 | 1.6 | 1.6 | 0.00 | 0.03 | 0.03 | 81 | 1006.3 |
| 20260505153118 | 10 | 267 | 0.0 | 0.0 | 0.00 | 0.03 | 0.03 | 81 | 1006.9 |
| 20260505152615 | 10 | 224 | 1.6 | 1.6 | 0.00 | 0.03 | 0.03 | 83 | 1006.5 |
| 20260505152110 | 10 | 293 | 0.0 | 0.0 | 0.00 | 0.03 | 0.03 | 85 | 1006.7 |
| 20260505151606 | 9 | 287 | 0.0 | 0.0 | 0.00 | 0.03 | 0.03 | 85 | 1006.3 |
| 20260505151104 | 9 | 287 | 0.0 | 0.0 | 0.00 | 0.03 | 0.03 | 87 | 1006.4 |
| 20260505150600 | 9 | 269 | 0.0 | 0.0 | 0.00 | 0.03 | 0.03 | 87 | 1006.5 |
| 20260505140525 | 9 | 284 | 0.0 | 0.0 | 0.00 | 0.00 | 0.00 | 76 | 1006.0 |
| 20260505124938 | 10 | 44 | 1.6 | 1.6 | 0.00 | 0.00 | 0.00 | 70 | 1004.4 |
| 20260505124435 | 10 | 357 | 3.2 | 3.2 | 0.00 | 0.00 | 0.00 | 69 | 1004.3 |
| 20260505123931 | 10 | 67 | 0.0 | 0.0 | 0.00 | 0.00 | 0.00 | 70 | 1004.0 |
| 20260505123428 | 10 | 77 | 1.6 | 3.2 | 0.00 | 0.00 | 0.00 | 70 | 1004.2 |
| 20260505122924 | 9 | 347 | 3.2 | 4.8 | 0.00 | 0.00 | 0.00 | 70 | 1004.3 |
| 20260505122422 | 9 | 76 | 1.6 | 1.6 | 0.00 | 0.00 | 0.00 | 70 | 1004.2 |
| 20260505121918 | 9 | 57 | 1.6 | 1.6 | 0.00 | 0.00 | 0.00 | 71 | 1004.0 |
| 20260505121415 | 9 | 69 | 0.0 | 0.0 | 0.00 | 0.00 | 0.00 | 71 | 1003.9 |
| 20260505120911 | 9 | 47 | 0.0 | 0.0 | 0.00 | 0.00 | 0.00 | 71 | 1003.7 |
| 20260505120407 | 9 | 59 | 1.6 | 1.6 | 0.00 | 0.00 | 0.00 | 69 | 1003.7 |
| 20260505115906 | 9 | 68 | 1.6 | 1.6 | 0.00 | 0.00 | 0.00 | 70 | 1003.7 |
| 20260505115403 | 9 | 352 | 4.8 | 4.8 | 0.00 | 0.00 | 0.00 | 70 | 1004.0 |
| 20260505114901 | 9 | 44 | 3.2 | 3.2 | 0.00 | 0.00 | 0.00 | 70 | 1003.4 |
| 20260505114357 | 9 | 24 | 1.6 | 1.6 | 0.00 | 0.00 | 0.00 | 70 | 1004.0 |
| 20260505113854 | 9 | 16 | 4.8 | 8.0 | 0.00 | 0.00 | 0.00 | 69 | 1003.5 |
| 20260505113350 | 10 | 37 | 3.2 | 3.2 | 0.00 | 0.00 | 0.00 | 69 | 1003.5 |
| 20260505112846 | 9 | 75 | 1.6 | 1.6 | 0.00 | 0.00 | 0.00 | 69 | 1003.2 |
| 20260505112344 | 9 | 71 | 0.0 | 1.6 | 0.00 | 0.00 | 0.00 | 71 | 1003.1 |
| 20260505111840 | 9 | 42 | 3.2 | 3.2 | 0.00 | 0.00 | 0.00 | 71 | 1002.9 |
| 20260505111335 | 8 | 78 | 0.0 | 0.0 | 0.00 | 0.00 | 0.00 | 74 | 1002.9 |
| 20260505110831 | 8 | 36 | 1.6 | 3.2 | 0.00 | 0.00 | 0.00 | 76 | 1002.8 |
| 20260505110329 | 8 | 299 | 4.8 | 8.0 | 0.00 | 0.00 | 0.00 | 76 | 1002.4 |
| 20260505101804 | 9 | 347 | 0.0 | 1.6 | 0.00 | 0.00 | 0.00 | 85 | 1001.8 |
| 20260505101258 | 9 | 39 | 4.8 | 4.8 | 0.00 | 0.00 | 0.00 | 86 | 1001.3 |
| 20260505100755 | 9 | 29 | 6.4 | 9.7 | 0.00 | 0.00 | 0.00 | 87 | 1001.3 |
| 20260505100252 | 10 | 347 | 6.4 | 8.0 | 0.00 | 0.00 | 0.00 | 87 | 1001.2 |
| 20260505095748 | 10 | 273 | 4.8 | 8.0 | 0.00 | 0.00 | 0.00 | 86 | 1001.0 |
| 20260505095246 | 11 | 334 | 4.8 | 4.8 | 0.00 | 0.00 | 0.00 | 85 | 1000.9 |
| 20260505094741 | 12 | 306 | 3.2 | 3.2 | 0.00 | 0.00 | 0.00 | 85 | 1000.5 |
| 20260505094238 | 13 | 315 | 8.0 | 11.3 | 0.00 | 0.00 | 0.00 | 89 | 1000.3 |
| 20260505093734 | 13 | 280 | 6.4 | 8.0 | 0.00 | 0.00 | 0.00 | 89 | 1000.4 |
| 20260505093231 | 13 | 230 | 3.2 | 3.2 | 0.00 | 0.00 | 0.00 | 88 | 1000.2 |
| 20260505092728 | 13 | 248 | 6.4 | 8.0 | 0.00 | 0.00 | 0.00 | 88 | 1000.0 |
| 20260505092227 | 13 | 291 | 3.2 | 3.2 | 0.00 | 0.00 | 0.00 | 88 | 999.8 |
| 20260505091724 | 13 | 234 | 3.2 | 4.8 | 0.00 | 0.00 | 0.00 | 88 | 999.9 |
| 20260505091222 | 14 | 291 | 3.2 | 3.2 | 0.00 | 0.00 | 0.00 | 88 | 999.8 |
| 20260505090719 | 14 | 261 | 6.4 | 9.7 | 0.00 | 0.00 | 0.00 | 88 | 999.8 |
| 20260505090218 | 14 | 284 | 4.8 | 4.8 | 0.00 | 0.00 | 0.00 | 87 | 999.8 |
| 20260505085714 | 14 | 284 | 3.2 | 4.8 | 0.00 | 0.00 | 0.00 | 87 | 1000.0 |
| 20260505085213 | 14 | 250 | 3.2 | 4.8 | 0.00 | 0.00 | 0.00 | 87 | 999.8 |
| 20260505084709 | 14 | 263 | 0.0 | 0.0 | 0.00 | 0.00 | 0.00 | 86 | 999.7 |
| 20260505084209 | 15 | 231 | 3.2 | 3.2 | 0.00 | 0.00 | 0.00 | 86 | 999.7 |
| 20260505083705 | 15 | 285 | 4.8 | 8.0 | 0.00 | 0.00 | 0.00 | 86 | 999.6 |
| 20260505083202 | 15 | 292 | 4.8 | 4.8 | 0.00 | 0.00 | 0.00 | 85 | 999.5 |
| 20260505082657 | 15 | 218 | 1.6 | 3.2 | 0.00 | 0.00 | 0.00 | 85 | 999.5 |
| 20260505082155 | 15 | 267 | 0.0 | 0.0 | 0.00 | 0.00 | 0.00 | 85 | 999.5 |
| 20260505081650 | 15 | 237 | 1.6 | 3.2 | 0.00 | 0.00 | 0.00 | 84 | 999.2 |
| 20260505081148 | 15 | 279 | 6.4 | 9.7 | 0.00 | 0.00 | 0.00 | 84 | 999.2 |
| 20260505080645 | 15 | 247 | 1.6 | 3.2 | 0.00 | 0.00 | 0.00 | 84 | 999.4 |
| 20260505080141 | 15 | 252 | 4.8 | 4.8 | 0.00 | 0.00 | 0.00 | 84 | 999.2 |
| 20260505075637 | 15 | 274 | 0.0 | 0.0 | 0.00 | 0.00 | 0.00 | 83 | 999.0 |
| 20260505075134 | 15 | 228 | 4.8 | 4.8 | 0.00 | 0.00 | 0.00 | 84 | 998.7 |
| 20260505074631 | 15 | 298 | 4.8 | 4.8 | 0.00 | 0.00 | 0.00 | 83 | 998.9 |
| 20260505074128 | 15 | 301 | 1.6 | 3.2 | 0.00 | 0.00 | 0.00 | 83 | 998.5 |
| 20260505073626 | 15 | 264 | 3.2 | 4.8 | 0.00 | 0.00 | 0.00 | 82 | 998.6 |
| 20260505073124 | 15 | 253 | 3.2 | 3.2 | 0.00 | 0.00 | 0.00 | 82 | 998.5 |
| 20260505072619 | 15 | 189 | 6.4 | 8.0 | 0.00 | 0.00 | 0.00 | 82 | 998.5 |
| 20260505072116 | 15 | 252 | 0.0 | 0.0 | 0.00 | 0.00 | 0.00 | 82 | 998.6 |
| 20260505071611 | 15 | 254 | 3.2 | 4.8 | 0.00 | 0.00 | 0.00 | 82 | 998.7 |
| 20260505071110 | 15 | 200 | 3.2 | 3.2 | 0.00 | 0.00 | 0.00 | 81 | 998.4 |
| 20260505070606 | 15 | 206 | 4.8 | 8.0 | 0.00 | 0.00 | 0.00 | 81 | 998.3 |
| 20260505065558 | 15 | 198 | 6.4 | 8.0 | 0.00 | 0.00 | 0.00 | 80 | 998.6 |
| 20260505065055 | 15 | 293 | 1.6 | 1.6 | 0.00 | 0.00 | 0.00 | 80 | 998.6 |
| 20260505064552 | 16 | 229 | 1.6 | 1.6 | 0.00 | 0.00 | 0.00 | 80 | 998.6 |
| 20260505064051 | 16 | 214 | 3.2 | 3.2 | 0.00 | 0.00 | 0.00 | 80 | 998.5 |
| 20260505063548 | 16 | 258 | 4.8 | 8.0 | 0.00 | 0.00 | 0.00 | 80 | 998.7 |
| 20260505063043 | 16 | 300 | 4.8 | 8.0 | 0.00 | 0.00 | 0.00 | 81 | 998.8 |
| 20260505062540 | 16 | 274 | 3.2 | 4.8 | 0.00 | 0.00 | 0.00 | 80 | 998.7 |
| 20260505062037 | 16 | 197 | 3.2 | 3.2 | 0.00 | 0.00 | 0.00 | 79 | 998.6 |
| 20260505061535 | 16 | 137 | 1.6 | 1.6 | 0.00 | 0.00 | 0.00 | 78 | 998.6 |
| 20260505061033 | 16 | 212 | 3.2 | 8.0 | 0.00 | 0.00 | 0.00 | 78 | 998.6 |
| 20260505060530 | 16 | 206 | 3.2 | 4.8 | 0.00 | 0.00 | 0.00 | 77 | 998.8 |
| 20260505060026 | 16 | 218 | 4.8 | 4.8 | 0.00 | 0.00 | 0.00 | 77 | 998.9 |
| 20260505055522 | 17 | 308 | 1.6 | 1.6 | 0.00 | 0.00 | 0.00 | 76 | 998.7 |
| 20260505055019 | 17 | 294 | 0.0 | 1.6 | 0.00 | 0.00 | 0.00 | 77 | 998.7 |
| 20260505054516 | 17 | 229 | 3.2 | 4.8 | 0.00 | 0.00 | 0.00 | 77 | 998.7 |
| 20260505054014 | 17 | 166 | 3.2 | 3.2 | 0.00 | 0.00 | 0.00 | 75 | 998.6 |
| 20260505053511 | 17 | 200 | 6.4 | 9.7 | 0.00 | 0.00 | 0.00 | 75 | 998.4 |
| 20260505053008 | 17 | 222 | 9.7 | 14.5 | 0.00 | 0.00 | 0.00 | 73 | 998.4 |
| 20260505052505 | 17 | 28 | 4.8 | 8.0 | 0.00 | 0.00 | 0.00 | 75 | 998.4 |
| 20260505052002 | 18 | 254 | 4.8 | 8.0 | 0.00 | 0.00 | 0.00 | 73 | 998.4 |
| 20260505051458 | 18 | 236 | 4.8 | 4.8 | 0.00 | 0.00 | 0.00 | 66 | 998.4 |
| 20260505050957 | 19 | 227 | 4.8 | 4.8 | 0.00 | 0.00 | 0.00 | 64 | 998.5 |
| 20260505050455 | 19 | 241 | 6.4 | 9.7 | 0.00 | 0.00 | 0.00 | 63 | 998.3 |
| 20260505041422 | 19 | 253 | 1.6 | 3.2 | 0.00 | 0.00 | 0.00 | 67 | 997.5 |
| 20260505040920 | 19 | 235 | 1.6 | 1.6 | 0.00 | 0.00 | 0.00 | 67 | 997.6 |
| 20260505040417 | 20 | 211 | 6.4 | 8.0 | 0.00 | 0.00 | 0.00 | 67 | 997.7 |
| 20260505035913 | 20 | 278 | 6.4 | 8.0 | 0.00 | 0.00 | 0.00 | 67 | 997.5 |
| 20260505035410 | 19 | 269 | 4.8 | 8.0 | 0.00 | 0.00 | 0.00 | 67 | 997.7 |
| 20260505034907 | 20 | 233 | 8.0 | 9.7 | 0.00 | 0.00 | 0.00 | 67 | 997.7 |
| 20260505034403 | 19 | 303 | 0.0 | 0.0 | 0.00 | 0.00 | 0.00 | 67 | 997.7 |
| 20260505033901 | 19 | 191 | 8.0 | 9.7 | 0.00 | 0.00 | 0.00 | 68 | 997.5 |
| 20260505033357 | 19 | 238 | 11.3 | 17.7 | 0.00 | 0.00 | 0.00 | 67 | 997.4 |
| 20260505032856 | 19 | 277 | 4.8 | 8.0 | 0.00 | 0.00 | 0.00 | 68 | 997.4 |
| 20260505032352 | 19 | 206 | 11.3 | 14.5 | 0.00 | 0.00 | 0.00 | 68 | 997.5 |
| 20260505031849 | 19 | 246 | 4.8 | 8.0 | 0.00 | 0.00 | 0.00 | 68 | 997.3 |
| 20260505031346 | 19 | 211 | 1.6 | 3.2 | 0.00 | 0.00 | 0.00 | 68 | 997.1 |
| 20260505030843 | 19 | 205 | 1.6 | 3.2 | 0.00 | 0.00 | 0.00 | 68 | 997.1 |
| 20260505030338 | 19 | 253 | 3.2 | 4.8 | 0.00 | 0.00 | 0.00 | 67 | 997.3 |
| 20260505025834 | 19 | 279 | 4.8 | 9.7 | 0.00 | 0.00 | 0.00 | 68 | 997.2 |
| 20260505025332 | 19 | 215 | 1.6 | 1.6 | 0.00 | 0.00 | 0.00 | 67 | 997.2 |
| 20260505024830 | 19 | 286 | 3.2 | 8.0 | 0.00 | 0.00 | 0.00 | 67 | 997.5 |
| 20260505024328 | 20 | 187 | 6.4 | 8.0 | 0.00 | 0.00 | 0.00 | 66 | 997.7 |
| 20260505023825 | 19 | 195 | 4.8 | 8.0 | 0.00 | 0.00 | 0.00 | 67 | 997.7 |
| 20260505023321 | 19 | 252 | 3.2 | 4.8 | 0.00 | 0.00 | 0.00 | 66 | 997.6 |
| 20260505022819 | 19 | 320 | 8.0 | 11.3 | 0.00 | 0.00 | 0.00 | 67 | 997.7 |
| 20260505022315 | 19 | 228 | 3.2 | 3.2 | 0.00 | 0.00 | 0.00 | 66 | 997.6 |
| 20260505021813 | 20 | 193 | 1.6 | 3.2 | 0.00 | 0.00 | 0.00 | 65 | 997.4 |
| 20260505021310 | 20 | 264 | 6.4 | 11.3 | 0.00 | 0.00 | 0.00 | 65 | 997.5 |
| 20260505020805 | 20 | 89 | 4.8 | 4.8 | 0.00 | 0.00 | 0.00 | 64 | 997.6 |
| 20260505020301 | 19 | 355 | 8.0 | 11.3 | 0.00 | 0.00 | 0.00 | 64 | 997.5 |
| 20260505015758 | 20 | 240 | 4.8 | 8.0 | 0.00 | 0.00 | 0.00 | 64 | 997.5 |
| 20260505015255 | 20 | 150 | 1.6 | 1.6 | 0.00 | 0.00 | 0.00 | 64 | 997.5 |
| 20260505014752 | 20 | 165 | 6.4 | 8.0 | 0.00 | 0.00 | 0.00 | 63 | 997.3 |
| 20260505014250 | 20 | 43 | 1.6 | 3.2 | 0.00 | 0.00 | 0.00 | 63 | 997.3 |
| 20260505013746 | 20 | 137 | 3.2 | 3.2 | 0.00 | 0.00 | 0.00 | 61 | 997.5 |
| 20260505013243 | 19 | 170 | 4.8 | 4.8 | 0.00 | 0.00 | 0.00 | 60 | 997.3 |
| 20260505012741 | 18 | 127 | 0.0 | 0.0 | 0.00 | 0.00 | 0.00 | 56 | 997.3 |
| 20260505012238 | 18 | 265 | 0.0 | 0.0 | 0.00 | 0.00 | 0.00 | 55 | 997.1 |
| 20260505011734 | 18 | 327 | 0.0 | 0.0 | 0.00 | 0.00 | 0.00 | 55 | 997.2 |
| 20260505011231 | 18 | 318 | 0.0 | 0.0 | 0.00 | 0.00 | 0.00 | 54 | 996.9 |
| 20260505010727 | 18 | 348 | 0.0 | 0.0 | 0.00 | 0.00 | 0.00 | 54 | 996.8 |
| 20260505010223 | 19 | 296 | 0.0 | 0.0 | 0.00 | 0.00 | 0.00 | 51 | 996.9 |